DECAYED

STARLINK-3081, 49152 (Decayed)

Orbit data source: Space-Track

STARLINK-3081, 49152 was a payload satellite owned by SpaceX/Seattle (US) in LEO that was launched on Tue, 14 Sep 2021 UTC via an FALCON 9 launch vehicle from the Air Force Western Test Range (AFWTR). Payload-class satellites include a variety of spacecraft equipped with specific instruments for various scientific and technological missions. These include communications satellites like Starlink; space stations such as the ISS; scientific satellites like the Hubble; Earth observation satellites from companies like Planet Labs, Umbra, and HawkEye 360; GPS; miniature CubeSats for education and research; and military/defense satellites.

Not visible in the next 10 days
Identifier
49152, 2021-082Y
Orbit
Decayed
Country
Flag of USUS
Related business
Manufacturer
SpaceX/Seattle
Mission
Decayed Commercial Communications
Bus & Motor
STARLINK, Unknown motor
Mass
297 kg wet, ~275 kg dry
Launch date (UTC)
2021-09-14 (5 years ago)
Launch vehicle
FALCON 9
Launch site
Air Force Western Test Range (AFWTR)
Object type
Payload
Rocket body
Debris
Shape & HBR
Box + 1 Pan, 10.1 m
Radar Cross Section
13.562 m², Large (>1 m²)

Expand to show TLE details & history
Last TLE update: 1 year ago

TLE from 1 year ago
0 STARLINK-3081
1 49152U 21082Y   25105.23245749  .23556450  44430-5  27369-2 0  9992
2 49152  69.9572 348.3151 0013889 292.4239 177.1682 16.36167060199249
Epoch: 2025-04-15T05:34Z
TLE epoch observation values (Epoch: 2025-04-15T05:34:44.327Z)
Latitude
62.37071°
Longitude
-162.87103°
Altitude
195.191 km
Speed
7.79 km/s
True Right ascension
08h 17m 47s
True Declination
62° 13' 01"
Sunlit
Object was in daylight at epoch
Visualization orbit readout
Latitude
Unknown
Longitude
Unknown
Altitude
Unknown
Speed
Unknown
Apparent Right ascension
Unknown
Apparent Declination
Unknown
Sunlit
N/A
Visualization observer readout
Local Sidereal Time
00:03:54
Azimuth
Unknown
Elevation
Unknown
Doppler factor
Unknown
Orbital elements
Apogee altitude
182.947 km
Perigee altitude
164.747 km
Semi-major axis
6,551.984 km
Eccentricity
0.00139
Inclination
69.9572°
RAAN
348.3151°
Arg. of periapsis
292.4239°
True anomaly
177.17605°
Mean anomaly
177.1682°
Eccentric anomaly
177.17213°
Mean motion
4.09245 °/min
Orbital period
87.97 mins
BSTAR
0.0027369
Loading maneuver chart data...
Computing Atmospheric mass density...
Loading historical data...
Loading historical data...
Loading historical data...
Loading historical data...
Loading historical data...
Loading historical data...
Loading historical data...

Documentation

Showing up to 5 results
|